Voltar ao catálogo

STARLINK-5016

AtivoComunicaçõesVLEO
NORAD 56143·PAYLOAD·🇺🇸 United States

Lançado Mar 29, 2023 de Cape Canaveral Space Force Station

Loading…

Próximas Passagens (próximas 24 horas)

TLE

AtualizadoSource: CelesTrak SupGP

Época: Sep 15, 2026, 02:48 UTC

1 56143C 23046BC  26258.11715278  .00043711  00000+0  19466-2 0  2580
2 56143  42.9971 173.3311 0005774 177.6097 105.1587 15.20628462    16

Acompanhe STARLINK-5016 em tempo real com AllMySat

Download on the App Store